SCP
0 0 0 0 0 0 0 0 0 0 0 0 0 0 0 0 0 0 0 0 0 0 0 0 0 0 0 0 0 0 0 0 0 0 0 0 0 0 0 0 0 0 0
0 0 0 0 0 0 0 0 0 0 0 0 0 0 0 0 0 0 0 0 0 0 0 0 0 0 0 0 0 0 0 0 0 0 0 0 0 0 0 0 0 0 0
0 0 0 0 0 0 0 0 0 0 0 0 0 0 0 0 0 0 0 0 0 0 0 0 0 0 0 0 0 0 0 0 0 0 0 0 0 0 0 0 0 0 0
0 0 0 0 0 0 0 0 0 0 0 0 0 0 0 0 0 0 0 0 0 0 0 0 0 0 0 0 0 0 0 0 0 0 0 0 0 0 0 0 0 0 0
0 0 0 0 0 0 0 0 0 0 0 0 0 0 0 0 0 0 0 0 0 0 0 0 0 0 0 0 0 0 0 0 0 0 0 0 0 0 0 0 0 0 0
0 0 0 0 0 0 0 0 0 0 0 0 0 0 0 0 0 0 0 0 0 0 0 0 0 0 0 0 0 0 0 0 0 0 0 0 0 0 0 0 0 0 0
0 0 0 0 0 0 0 0 0 0 0 0 0 0 0 0 0 0 0 0 0 0 0 0 0 0 0 0 0 0 0 0 0 0 0 0 0 0 0 0 0 0 0
0 0 0 0 0 0 0 0 0 0 0 0 0 0 0 0 0 0 0 0 0 0 0 0 0 0 0 0 0 0 0 0 0 0 0 0 0 0 0 0 0 0 0
0 0 0 0 0 0 0 0 0 0 0 0 0 0 0 0 0 0 0 0 0 0 0 0 0 0 0 0 0 0 0 0 0 0 0 0 0 0 0 0 0 0 0
0 0 0 0 0 0 0 0 0 0 0 0 0 0 0 0 0 0 0 0 0 0 0 0 0 0 0 0 0 0 0 0 0 0 0 0 0 0 0 0 0 0 0
0 0 0 0 0 0 0 0 0 0 0 0 0 0 0 0 0 0 0 0 0 0 0 0 0 0 0 0 0 0 0 0 0 0 0 0 0 0 0 0 0 0 0
0 0 0 -0 -0 -0 0 0 0 0 0 0 0 0 0 0 0 0 0 0 0 0 0 0 0 0 0 0 0 0 0 0 0 0 0 0 0 0 0 0 0 0 0
0 -0 -0 -0 -0 0 0 0 0 0 0 0 0 0 0 0 0 0 0 0 0 0 0 0 0 0 0 0 0 0 0 0 0 0 0 0 0 0 0 0 0 0 0
0 -0 -0 -0 0 0 0 0 0 0 0 0 0 0 0 0 0 0 0 0 0 0 0 0 0 0 0 0 0 0 0 0 0 0 0 0 0 0 0 0 0 0 0
-0 -0 0 0 0 0 0 0 0 0 0 0 0 0 0 0 0 0 0 0 0 0 0 0 0 0 0 0 0 0 0 0 0 0 0 0 0 0 0 0 0 0 0
0 0 0 0 0 0 0 0 0 0 0 0 0 0 0 0 0 0 0 0 0 0 0 0 0 0 0 0 0 0 0 0 0 0 0 0 0 0 0 0 0 0 0
0 0 0 0 0 0 0 0 0 0 0 0 0 0 0 0 0 0 0 0 0 0 0 0 0 0 0 0 0 0 0 0 0 0 0 0 0 0 0 0 0 0 0
0 0 0 0 0 0 0 0 0 0 0 0 0 0 0 0 0 0 0 0 0 0 0 0 0 0 0 0 0 0 0 0 0 0 0 0 0 0 0 0 0 0 0
0 0 0 0 0 0 0 0 0 0 0 0 0 0 0 0 0 0 0 0 0 0 0 0 0 0 0 0 0 0 0 0 0 0 0 0 0 0 0 0 0 0 0
0 0 0 0 0 0 0 0 0 0 0 0 0 0 0 0 0 0 0 0 0 0 0 0 0 0 0 0 0 0 0 0 0 0 0 0 0 0 0 0 0 0 0
0 0 0 0 0 0 0 0 0 0 0 0 0 0 0 0 0 0 0 0 0 0 0 0 0 0 0 0 0 0 0 0 0 0 0 0 0 0 0 0 0 0 0
0 0 0 0 0 0 0 0 0 0 0 0 0 0 0 0 0 0 0 0 0 0 0 0 0 0 0 0 0 0 0 0 0 0 0 0 0 0 0 0 0 0 0
0 0 0 0 0 0 0 0 0 0 0 0 0 0 0 0 0 0 0 0 0 0 0 0 0 0 0 0 0 0 0 0 0 0 0 0 0 0 0 0 0 0 0
0 0 0 0 0 0 0 0 0 0 0 0 0 0 0 0 0 0 0 0 0 0 0 0 0 0 0 0 0 0 0 0 0 0 0 0 0 0 0 0 0 0 0
0 0 0 0 0 0 0 0 0 0 0 0 0 0 0 0 0 0 0 0 0 0 0 0 0 0 0 0 0 0 0 0 0 0 0 0 0 0 0 0 0 0 0
0 0 0 0 0 0 0 0 0 0 0 0 0 0 0 0 0 0 0 0 0 0 0 0 0 0 0 0 0 0 0 0 0 -0 0 0 0 0 0 0 0 0 0
Wind_Speed_500mb
39 29 29 30 34 44 50 49 44 43 45 50 52 54 57 52 46 42 38 40 45 51 50 50 47 45 47 47 47 49 50 50 48 51 57 60 61 64 64 53 34 42 37
57 54 48 48 47 47 54 59 59 60 62 58 56 58 54 52 48 44 41 38 37 42 55 51 52 50 49 49 50 51 54 55 54 53 56 56 59 59 44 42 57 35 34
59 55 44 37 40 44 45 49 50 50 52 55 57 56 55 52 50 50 45 39 37 34 37 55 48 48 50 49 49 51 49 51 51 53 48 25 29 51 62 44 48 54 53
50 47 38 39 48 54 50 55 59 59 57 52 54 56 56 54 50 47 44 41 40 34 27 30 53 45 46 47 45 45 47 46 49 50 54 56 59 53 46 53 66 62 58
23 22 24 31 41 47 50 54 55 50 52 51 51 49 53 51 45 41 36 33 32 28 24 20 25 38 41 38 36 36 40 40 43 45 48 52 56 58 62 63 64 68 69
4 9 12 20 28 33 33 38 45 47 48 50 50 53 52 50 44 38 29 29 29 31 33 31 27 28 34 37 36 36 37 38 41 43 45 48 51 56 59 63 65 68 74
7 6 6 6 6 7 10 12 17 23 29 31 39 53 57 55 50 42 43 41 43 38 35 33 30 29 29 29 33 35 34 33 39 41 42 44 49 50 53 59 69 71 74
9 7 4 5 7 7 5 4 4 8 13 18 22 27 33 39 41 38 42 43 37 35 33 30 29 31 32 31 33 34 35 38 40 40 39 43 46 48 53 55 61 72 72
7 5 1 3 6 7 7 7 6 5 4 8 13 18 23 26 29 28 30 28 25 25 24 23 22 22 23 24 26 28 32 36 41 44 47 49 50 47 47 48 52 57 69
7 6 6 9 11 12 13 13 12 11 11 12 12 13 14 14 14 14 15 15 13 12 11 12 14 17 20 22 25 27 30 31 34 38 41 43 44 44 42 44 47 47 57
15 15 15 14 16 16 14 16 17 17 17 16 13 11 10 9 9 9 9 7 6 8 12 15 19 21 23 25 26 27 28 29 30 32 35 37 40 44 49 50 47 49 49
9 13 18 19 20 20 20 18 19 22 22 19 17 16 15 13 10 7 6 7 9 12 17 20 23 25 26 26 26 27 29 30 31 31 32 33 32 33 32 32 38 45 55
4 6 19 25 30 31 30 29 26 28 27 25 24 23 19 11 7 7 10 13 17 19 21 24 27 29 30 31 31 31 31 32 33 33 32 32 31 32 35 35 35 36 40
17 20 20 25 34 35 37 37 34 32 35 32 31 30 25 17 14 14 17 20 23 26 25 26 29 31 31 32 32 33 33 33 33 33 31 30 31 34 36 35 36 39 43
34 35 37 44 47 44 42 41 41 38 37 41 39 36 30 24 22 23 25 26 28 28 28 30 30 31 34 36 38 38 37 36 35 34 32 30 29 33 32 38 39 41 43
40 41 42 48 53 53 53 48 44 41 41 46 52 49 44 40 32 30 32 32 32 32 34 37 35 34 37 40 42 40 39 37 36 35 33 33 33 34 35 34 36 39 42
37 42 59 60 55 53 51 50 44 42 43 44 51 57 55 50 45 39 38 38 35 37 37 36 36 35 39 42 45 41 39 38 36 36 35 35 36 38 42 41 41 38 30
54 51 42 43 41 42 43 46 50 44 45 45 48 55 59 56 52 45 40 42 42 40 37 35 33 33 36 40 44 42 39 36 35 35 36 37 36 37 43 47 46 42 39
37 31 31 32 34 42 47 48 48 47 47 50 50 52 56 56 52 48 45 46 44 40 36 33 32 31 32 35 36 35 35 35 35 34 35 35 35 34 37 44 47 46 43
15 22 31 38 40 43 45 47 45 45 46 50 53 53 55 54 52 50 49 48 43 37 32 29 27 25 26 28 30 33 34 33 32 30 31 34 37 38 35 40 42 47 45
22 25 30 36 43 48 52 53 48 46 48 52 53 53 54 53 51 48 44 39 36 32 27 24 22 21 19 23 26 28 31 34 31 32 32 34 37 39 38 35 36 37 43
30 36 42 44 47 51 54 53 50 46 48 49 48 48 48 46 43 39 37 34 30 24 20 19 17 17 16 19 24 25 30 34 35 30 32 34 36 38 39 34 34 37 38
39 42 46 49 50 52 56 54 44 42 42 40 40 40 40 39 36 34 32 28 25 22 19 16 16 15 14 19 24 28 33 36 38 40 36 34 34 35 36 38 40 44 47
42 44 47 50 52 54 54 48 43 37 37 38 35 34 35 35 34 33 30 27 24 20 21 17 12 17 21 24 30 33 34 37 40 41 42 42 39 36 38 37 38 40 42
44 42 45 50 54 55 51 45 40 38 35 34 33 33 33 33 31 30 27 23 20 18 14 12 16 20 22 28 33 37 38 38 39 39 41 40 41 44 45 44 44 43 44
43 43 43 46 48 50 48 43 39 36 35 34 34 34 33 33 30 26 20 14 6 10 13 16 20 23 28 29 28 28 31 35 37 40 41 42 43 45 47 49 49 47 48
Wind_Direction_500mb
238 240 233 239 246 243 241 240 240 244 249 254 256 263 268 270 265 263 262 262 261 261 258 265 268 268 264 264 260 264 265 270 276 280 283 285 287 288 294 303 300 305 299
257 260 266 266 261 258 257 252 249 251 253 252 253 259 265 268 269 266 264 268 263 261 255 252 257 256 258 260 261 263 268 272 277 279 286 289 292 298 300 298 305 300 295
264 264 259 260 261 255 243 238 240 243 249 251 255 255 256 257 258 262 265 268 275 270 257 250 250 253 257 262 260 263 267 272 275 276 274 281 282 295 300 298 296 290 288
262 270 261 247 256 253 247 245 247 254 251 246 250 251 253 257 266 264 268 271 269 266 260 256 245 249 258 265 265 266 267 269 271 276 276 278 282 287 295 293 295 295 297
230 245 255 251 251 253 253 252 253 253 250 248 244 243 246 257 261 258 256 251 258 262 269 250 240 241 257 273 275 272 274 276 276 278 282 285 288 288 288 286 294 297 301
269 276 284 266 257 257 256 256 255 250 244 242 240 238 239 245 251 253 249 234 245 249 255 253 250 243 251 264 269 271 271 274 275 275 278 280 281 285 290 290 293 295 299
274 279 298 315 307 277 275 265 252 245 240 240 237 237 239 243 245 241 236 237 247 251 254 262 262 259 264 270 273 275 273 273 273 277 281 283 283 288 289 290 293 295 302
204 241 284 356 356 347 336 301 261 239 240 237 229 227 230 233 239 239 239 248 254 254 254 253 258 264 271 276 276 277 277 279 276 275 275 274 277 283 286 287 292 296 296
176 167 192 349 2 352 331 325 317 290 230 205 209 220 225 228 233 236 239 239 235 239 243 249 256 264 273 279 283 284 283 280 280 278 278 278 276 272 278 280 284 289 295
141 91 45 35 18 352 331 319 304 283 264 245 224 213 211 211 213 214 218 222 225 237 252 269 279 284 286 286 286 285 287 287 285 285 285 283 280 277 275 277 279 284 288
77 57 36 29 9 356 341 314 297 280 265 252 239 221 203 193 192 202 216 234 262 282 291 294 296 298 299 298 299 300 299 298 297 295 293 291 290 287 281 279 274 275 279
53 18 2 348 351 331 318 306 287 280 267 251 227 201 193 196 201 214 244 271 288 298 302 304 304 305 305 305 306 305 305 306 306 304 301 300 300 299 300 294 285 281 272
148 360 344 329 334 333 326 313 290 269 255 245 229 217 203 195 218 257 278 284 288 292 295 301 306 306 308 309 312 315 315 315 314 315 315 314 313 309 307 309 311 311 307
297 307 325 326 318 316 314 312 302 278 256 246 234 223 216 218 230 252 267 278 282 285 293 302 302 302 305 308 311 312 312 311 311 312 312 314 313 313 313 315 316 315 313
295 305 315 311 315 308 306 309 306 290 265 247 238 236 239 242 248 258 263 269 274 284 296 296 296 300 303 305 307 310 311 310 308 307 308 306 307 305 310 310 315 317 316
290 297 294 302 303 304 300 303 297 295 282 257 247 247 249 250 252 260 264 270 281 289 287 287 288 292 296 301 305 309 310 311 311 312 312 313 311 311 307 310 308 310 308
277 283 294 297 291 293 295 295 296 292 285 275 258 253 252 252 253 257 261 266 269 271 271 274 279 287 293 299 302 306 308 310 313 315 316 317 318 318 317 319 322 319 305
282 287 292 293 289 291 295 295 291 287 277 278 272 261 256 255 255 258 261 262 262 263 264 269 275 282 289 296 301 309 311 314 317 319 318 319 322 320 319 320 324 326 324
284 283 284 291 297 297 294 293 291 286 278 268 265 266 263 260 258 257 259 259 259 257 258 263 270 279 285 291 300 305 311 318 323 328 327 324 323 324 320 318 322 324 324
253 270 283 285 294 301 299 295 288 279 272 267 263 261 259 255 253 255 257 254 251 250 255 261 269 278 289 298 304 311 318 323 327 331 330 327 327 327 325 320 321 322 324
278 288 294 299 305 303 299 296 287 277 266 258 257 256 255 253 254 257 255 252 250 249 253 262 270 282 292 303 313 320 321 321 328 329 327 325 321 321 322 321 322 320 313
293 298 300 301 302 298 292 289 283 275 264 260 258 256 254 253 251 247 243 243 245 246 245 252 264 274 283 296 301 303 306 311 317 323 322 319 318 319 319 319 314 311 312
294 294 294 294 294 292 288 283 280 272 265 259 257 254 250 245 240 235 233 232 232 234 236 240 247 258 278 288 293 300 310 310 318 326 332 329 324 318 315 316 316 317 318
298 297 294 291 289 289 285 276 269 260 257 256 250 244 238 233 228 225 220 217 223 237 242 245 266 283 290 296 303 315 319 319 325 330 333 333 333 328 322 318 319 320 321
291 286 290 291 286 282 275 267 259 256 249 246 238 230 226 223 221 217 215 212 219 233 252 288 293 291 301 314 320 323 320 328 335 336 332 331 331 332 333 333 335 333 328
282 284 287 283 278 274 268 260 254 248 238 229 225 220 217 214 210 207 209 198 237 293 299 307 313 318 317 310 317 324 330 337 339 339 339 340 341 341 342 341 342 341 338
Wind_Speed_850mb
39 29 29 30 34 44 50 49 44 43 45 50 52 54 57 52 46 42 38 40 45 51 50 50 47 45 47 47 47 49 50 50 48 51 57 60 61 64 64 53 34 42 37
57 54 48 48 47 47 54 59 59 60 62 58 56 58 54 52 48 44 41 38 37 42 55 51 52 50 49 49 50 51 54 55 54 53 56 56 59 59 44 42 57 35 34
59 55 44 37 40 44 45 49 50 50 52 55 57 56 55 52 50 50 45 39 37 34 37 55 48 48 50 49 49 51 49 51 51 53 48 25 29 51 62 44 48 54 53
50 47 38 39 48 54 50 55 59 59 57 52 54 56 56 54 50 47 44 41 40 34 27 30 53 45 46 47 45 45 47 46 49 50 54 56 59 53 46 53 66 62 58
23 22 24 31 41 47 50 54 55 50 52 51 51 49 53 51 45 41 36 33 32 28 24 20 25 38 41 38 36 36 40 40 43 45 48 52 56 58 62 63 64 68 69
4 9 12 20 28 33 33 38 45 47 48 50 50 53 52 50 44 38 29 29 29 31 33 31 27 28 34 37 36 36 37 38 41 43 45 48 51 56 59 63 65 68 74
7 6 6 6 6 7 10 12 17 23 29 31 39 53 57 55 50 42 43 41 43 38 35 33 30 29 29 29 33 35 34 33 39 41 42 44 49 50 53 59 69 71 74
9 7 4 5 7 7 5 4 4 8 13 18 22 27 33 39 41 38 42 43 37 35 33 30 29 31 32 31 33 34 35 38 40 40 39 43 46 48 53 55 61 72 72
7 5 1 3 6 7 7 7 6 5 4 8 13 18 23 26 29 28 30 28 25 25 24 23 22 22 23 24 26 28 32 36 41 44 47 49 50 47 47 48 52 57 69
7 6 6 9 11 12 13 13 12 11 11 12 12 13 14 14 14 14 15 15 13 12 11 12 14 17 20 22 25 27 30 31 34 38 41 43 44 44 42 44 47 47 57
15 15 15 14 16 16 14 16 17 17 17 16 13 11 10 9 9 9 9 7 6 8 12 15 19 21 23 25 26 27 28 29 30 32 35 37 40 44 49 50 47 49 49
9 13 18 19 20 20 20 18 19 22 22 19 17 16 15 13 10 7 6 7 9 12 17 20 23 25 26 26 26 27 29 30 31 31 32 33 32 33 32 32 38 45 55
4 6 19 25 30 31 30 29 26 28 27 25 24 23 19 11 7 7 10 13 17 19 21 24 27 29 30 31 31 31 31 32 33 33 32 32 31 32 35 35 35 36 40
17 20 20 25 34 35 37 37 34 32 35 32 31 30 25 17 14 14 17 20 23 26 25 26 29 31 31 32 32 33 33 33 33 33 31 30 31 34 36 35 36 39 43
34 35 37 44 47 44 42 41 41 38 37 41 39 36 30 24 22 23 25 26 28 28 28 30 30 31 34 36 38 38 37 36 35 34 32 30 29 33 32 38 39 41 43
40 41 42 48 53 53 53 48 44 41 41 46 52 49 44 40 32 30 32 32 32 32 34 37 35 34 37 40 42 40 39 37 36 35 33 33 33 34 35 34 36 39 42
37 42 59 60 55 53 51 50 44 42 43 44 51 57 55 50 45 39 38 38 35 37 37 36 36 35 39 42 45 41 39 38 36 36 35 35 36 38 42 41 41 38 30
54 51 42 43 41 42 43 46 50 44 45 45 48 55 59 56 52 45 40 42 42 40 37 35 33 33 36 40 44 42 39 36 35 35 36 37 36 37 43 47 46 42 39
37 31 31 32 34 42 47 48 48 47 47 50 50 52 56 56 52 48 45 46 44 40 36 33 32 31 32 35 36 35 35 35 35 34 35 35 35 34 37 44 47 46 43
15 22 31 38 40 43 45 47 45 45 46 50 53 53 55 54 52 50 49 48 43 37 32 29 27 25 26 28 30 33 34 33 32 30 31 34 37 38 35 40 42 47 45
22 25 30 36 43 48 52 53 48 46 48 52 53 53 54 53 51 48 44 39 36 32 27 24 22 21 19 23 26 28 31 34 31 32 32 34 37 39 38 35 36 37 43
30 36 42 44 47 51 54 53 50 46 48 49 48 48 48 46 43 39 37 34 30 24 20 19 17 17 16 19 24 25 30 34 35 30 32 34 36 38 39 34 34 37 38
39 42 46 49 50 52 56 54 44 42 42 40 40 40 40 39 36 34 32 28 25 22 19 16 16 15 14 19 24 28 33 36 38 40 36 34 34 35 36 38 40 44 47
42 44 47 50 52 54 54 48 43 37 37 38 35 34 35 35 34 33 30 27 24 20 21 17 12 17 21 24 30 33 34 37 40 41 42 42 39 36 38 37 38 40 42
44 42 45 50 54 55 51 45 40 38 35 34 33 33 33 33 31 30 27 23 20 18 14 12 16 20 22 28 33 37 38 38 39 39 41 40 41 44 45 44 44 43 44
43 43 43 46 48 50 48 43 39 36 35 34 34 34 33 33 30 26 20 14 6 10 13 16 20 23 28 29 28 28 31 35 37 40 41 42 43 45 47 49 49 47 48
Wind_Direction_850mb
238 240 233 239 246 243 241 240 240 244 249 254 256 263 268 270 265 263 262 262 261 261 258 265 268 268 264 264 260 264 265 270 276 280 283 285 287 288 294 303 300 305 299
257 260 266 266 261 258 257 252 249 251 253 252 253 259 265 268 269 266 264 268 263 261 255 252 257 256 258 260 261 263 268 272 277 279 286 289 292 298 300 298 305 300 295
264 264 259 260 261 255 243 238 240 243 249 251 255 255 256 257 258 262 265 268 275 270 257 250 250 253 257 262 260 263 267 272 275 276 274 281 282 295 300 298 296 290 288
262 270 261 247 256 253 247 245 247 254 251 246 250 251 253 257 266 264 268 271 269 266 260 256 245 249 258 265 265 266 267 269 271 276 276 278 282 287 295 293 295 295 297
230 245 255 251 251 253 253 252 253 253 250 248 244 243 246 257 261 258 256 251 258 262 269 250 240 241 257 273 275 272 274 276 276 278 282 285 288 288 288 286 294 297 301
269 276 284 266 257 257 256 256 255 250 244 242 240 238 239 245 251 253 249 234 245 249 255 253 250 243 251 264 269 271 271 274 275 275 278 280 281 285 290 290 293 295 299
274 279 298 315 307 277 275 265 252 245 240 240 237 237 239 243 245 241 236 237 247 251 254 262 262 259 264 270 273 275 273 273 273 277 281 283 283 288 289 290 293 295 302
204 241 284 356 356 347 336 301 261 239 240 237 229 227 230 233 239 239 239 248 254 254 254 253 258 264 271 276 276 277 277 279 276 275 275 274 277 283 286 287 292 296 296
176 167 192 349 2 352 331 325 317 290 230 205 209 220 225 228 233 236 239 239 235 239 243 249 256 264 273 279 283 284 283 280 280 278 278 278 276 272 278 280 284 289 295
141 91 45 35 18 352 331 319 304 283 264 245 224 213 211 211 213 214 218 222 225 237 252 269 279 284 286 286 286 285 287 287 285 285 285 283 280 277 275 277 279 284 288
77 57 36 29 9 356 341 314 297 280 265 252 239 221 203 193 192 202 216 234 262 282 291 294 296 298 299 298 299 300 299 298 297 295 293 291 290 287 281 279 274 275 279
53 18 2 348 351 331 318 306 287 280 267 251 227 201 193 196 201 214 244 271 288 298 302 304 304 305 305 305 306 305 305 306 306 304 301 300 300 299 300 294 285 281 272
148 360 344 329 334 333 326 313 290 269 255 245 229 217 203 195 218 257 278 284 288 292 295 301 306 306 308 309 312 315 315 315 314 315 315 314 313 309 307 309 311 311 307
297 307 325 326 318 316 314 312 302 278 256 246 234 223 216 218 230 252 267 278 282 285 293 302 302 302 305 308 311 312 312 311 311 312 312 314 313 313 313 315 316 315 313
295 305 315 311 315 308 306 309 306 290 265 247 238 236 239 242 248 258 263 269 274 284 296 296 296 300 303 305 307 310 311 310 308 307 308 306 307 305 310 310 315 317 316
290 297 294 302 303 304 300 303 297 295 282 257 247 247 249 250 252 260 264 270 281 289 287 287 288 292 296 301 305 309 310 311 311 312 312 313 311 311 307 310 308 310 308
277 283 294 297 291 293 295 295 296 292 285 275 258 253 252 252 253 257 261 266 269 271 271 274 279 287 293 299 302 306 308 310 313 315 316 317 318 318 317 319 322 319 305
282 287 292 293 289 291 295 295 291 287 277 278 272 261 256 255 255 258 261 262 262 263 264 269 275 282 289 296 301 309 311 314 317 319 318 319 322 320 319 320 324 326 324
284 283 284 291 297 297 294 293 291 286 278 268 265 266 263 260 258 257 259 259 259 257 258 263 270 279 285 291 300 305 311 318 323 328 327 324 323 324 320 318 322 324 324
253 270 283 285 294 301 299 295 288 279 272 267 263 261 259 255 253 255 257 254 251 250 255 261 269 278 289 298 304 311 318 323 327 331 330 327 327 327 325 320 321 322 324
278 288 294 299 305 303 299 296 287 277 266 258 257 256 255 253 254 257 255 252 250 249 253 262 270 282 292 303 313 320 321 321 328 329 327 325 321 321 322 321 322 320 313
293 298 300 301 302 298 292 289 283 275 264 260 258 256 254 253 251 247 243 243 245 246 245 252 264 274 283 296 301 303 306 311 317 323 322 319 318 319 319 319 314 311 312
294 294 294 294 294 292 288 283 280 272 265 259 257 254 250 245 240 235 233 232 232 234 236 240 247 258 278 288 293 300 310 310 318 326 332 329 324 318 315 316 316 317 318
298 297 294 291 289 289 285 276 269 260 257 256 250 244 238 233 228 225 220 217 223 237 242 245 266 283 290 296 303 315 319 319 325 330 333 333 333 328 322 318 319 320 321
291 286 290 291 286 282 275 267 259 256 249 246 238 230 226 223 221 217 215 212 219 233 252 288 293 291 301 314 320 323 320 328 335 336 332 331 331 332 333 333 335 333 328
282 284 287 283 278 274 268 260 254 248 238 229 225 220 217 214 210 207 209 198 237 293 299 307 313 318 317 310 317 324 330 337 339 339 339 340 341 341 342 341 342 341 338